Location: Gorze? G�rny
(49.8500°N, 19.5000°E)
Time: 02:51:56
(UTC+00:00)

CZ-4 R/B - Pass Details

Date: 13 May 2021
Orbit: 680 x 753 km, 98.5° (Epoch: 23 June)

Event Time Altitude Azimuth Distance (km) Brightness Sun altitude
Rises 23:21:29 0° 18° (NNE) 3,157 8.7 -20.9°
Reaches altitude 10° 23:23:52 10° 23° (NNE) 2,219 7.5 -20.8°
Maximum altitude 23:28:36 52° 100° (E) 882 4.3 -20.6°
Enters shadow 23:30:03 38° 151° (SSE) 1,071 4.4 -20.6°
